Regional Weather Roundup
Issued by NWS

Home | Current Version | Previous Version | Graphics & Text | Print | Product List | Glossary On
Versions: 1 2 3 4 5 6 7 8 9 10 11 12 13 14 15 16 17 18 19 20 21 22 23 24 25 26 27 28 29 30 31 32 33 34 35 36 37 38 39 40 41 42 43 44 45 46 47 48 49 50
000
ASUS43 KFSD 221310
RWRSD

WEATHER ROUNDUP FOR SOUTH DAKOTA
NATIONAL WEATHER SERVICE SIOUX FALLS SD
800 AM CDT FRI JUL 22 2016

NOTE: "FAIR" INDICATES FEW OR NO CLOUDS BELOW 12,000 FEET WITH NO
SIGNIFICANT WEATHER AND/OR OBSTRUCTIONS TO VISIBILITY.


SDZ001>005-009-010-012>017-221400-
NORTHWEST AND NORTH CENTRAL SOUTH DAKOTA

CITY           SKY/WX    TMP DP  RH WIND       PRES   REMARKS
BUFFALO          N/A     69  61  75 NE5       29.99S
FAITH            N/A     75  70  84 E8        30.02S
MOBRIDGE       CLOUDY    77  73  87 E9        29.99F FOG
$$

SDZ012>016-024>037-041>051-057-063-072>074-221400-
SOUTHWEST AND SOUTH CENTRAL SOUTH DAKOTA

CITY           SKY/WX    TMP DP  RH WIND       PRES   REMARKS
RAPID CTY ARPT CLOUDY    73  64  73 NW3       30.05F
PIERRE         CLOUDY    78  77  96 SE7       29.99R FOG
CUSTER         MOSUNNY   62  55  77 CALM      30.25F
ELLSWORTH AFB  CLOUDY    75  59  57 W6        30.05S
PHILIP         PTSUNNY   74  69  85 CALM      30.01S
PINE RIDGE     CLOUDY    71  69  93 CALM      30.10R
WINNER         FOG       77  75  93 CALM      30.02R VSB<1/4
$$

SDZ004>011-016>023-039-040-221400-
NORTHEAST SOUTH DAKOTA

CITY           SKY/WX    TMP DP  RH WIND       PRES   REMARKS
ABERDEEN       SUNNY     74  70  87 NE7       30.01R
WATERTOWN      SUNNY     79  68  69 NE3       30.03R
SISSETON         N/A     70  70 100 CALM      30.02R
$$

SDZ017-020-022-023-036>040-048>070-221400-
SOUTHEAST SOUTH DAKOTA

CITY           SKY/WX    TMP DP  RH WIND       PRES   REMARKS
SIOUX FALLS    MOSUNNY   80  75  84 E9        29.96F
HURON          MOSUNNY   78  74  87 NE6       29.99R
CHAMBERLAIN    CLOUDY    81  80  98 CALM      30.00R
MITCHELL       SUNNY     81  77  88 E6        29.96R
YANKTON        MOSUNNY   81  77  89 NE8       29.93R
$$

ABBREVIATIONS USED IN REMARKS
   TC - TEMPERATURE IN CELSIUS
  WCI - WIND CHILL INDEX
   HX - HEAT INDEX
  VSB - VISIBILITY





USA.gov is the U.S. government's official web portal to all federal, state and local government web resources and services.